Stanley, ND

2:29 PM CDT on September 28, 2016 (GMT -0500)
Stanley

Weather History for K08D - October, 2012

Change the Weather History Date:

Thursday, October 18, 2012

  Actual Average (KMOT) Record (KMOT)
Temperature  
Mean Temperature 39 °F 44 °F  
Max Temperature 41 °F 54 °F 80 °F (2000)
Min Temperature 37 °F 33 °F 8 °F (1919)
Degree Days  
Heating Degree Days 26 21  
Month to date heating degree days 317  
Since 1 July heating degree days 637  
Cooling Degree Days 0 0  
Month to date cooling degree days 0  
Year to date cooling degree days 444  
Moisture  
Dew Point 37 °F    
Average Humidity 92    
Maximum Humidity 100    
Minimum Humidity 81    
Precipitation  
Precipitation 0.13 in 0.04 in 1.89 in (1994)
Month to date precipitation 0.76  
Year to date precipitation 15.66  
Sea Level Pressure  
Sea Level Pressure 29.80 in    
Wind  
Wind Speed 28 mph (NNW)    
Max Wind Speed 37 mph    
Max Gust Speed 53 mph    
Visibility 10 miles    
Events Rain    
T = Trace of Precipitation, MM = Missing Value Source: NWS Daily Summary

Daily Weather History Graph

Daily Weather History Graph

Search for Another Location

Airport or City:

Trip Planner

Search our weather history database for the weather conditions in past years. The results will help you decide how hot, cold, wet, or windy it might be!

Date:

Astronomy

Oct. 18, 2012 Rise Set
Actual Time 8:14 AM CDT 6:53 PM CDT
Civil Twilight 7:42 AM CDT 7:25 PM CDT
Nautical Twilight 7:06 AM CDT 8:01 PM CDT
Astronomical Twilight 6:30 AM CDT 8:37 PM CDT
Moon 12:15 PM CDT (10/18) 9:13 PM CDT (10/18)
Length of Visible Light 11h 42m
Length of Day
10h 39m
Waxing Crescent, 14% of the Moon is Illuminated
Oct 18
Waxing Crescent
Oct 21
First Quarter
Oct 29
Full
Nov 6
Last Quarter
Nov 13
New

Hourly Weather History & Observations

Time (CDT) Temp. Windchill Dew Point Humidity Pressure Visibility Wind Dir Wind Speed Gust Speed Precip Events Conditions
12:15 AM 39.2 °F 27.2 °F 37.4 °F 93% 29.55 in 10.0 mi NW 31.1 mph 44.9 mph N/A Rain Light Rain
12:35 AM 39.2 °F 27.0 °F 37.4 °F 93% 29.55 in 10.0 mi NW 32.2 mph 47.2 mph N/A Rain Light Rain
12:55 AM 39.2 °F 27.0 °F 37.4 °F 93% 29.55 in 10.0 mi NW 32.2 mph 41.4 mph N/A Rain Light Rain
1:15 AM 39.2 °F 27.0 °F 37.4 °F 93% 29.55 in 10.0 mi NW 32.2 mph 49.5 mph N/A   Mostly Cloudy
1:35 AM 39.2 °F 27.6 °F 37.4 °F 93% 29.56 in 10.0 mi NW 28.8 mph 43.7 mph N/A Rain Light Rain
1:55 AM 39.2 °F 27.4 °F 37.4 °F 93% 29.57 in 9.0 mi NW 29.9 mph 41.4 mph N/A Rain Light Rain
2:15 AM 37.4 °F 25.4 °F 37.4 °F 100% 29.56 in 10.0 mi NNW 27.6 mph 51.8 mph N/A Rain Light Rain
2:35 AM 39.2 °F 27.4 °F 37.4 °F 93% 29.57 in 10.0 mi NW 29.9 mph 42.6 mph N/A Rain Light Rain
2:55 AM 39.2 °F 27.6 °F 37.4 °F 93% 29.57 in 10.0 mi NNW 28.8 mph 52.9 mph N/A   Overcast
3:15 AM 39.2 °F 27.6 °F 37.4 °F 93% 29.58 in 10.0 mi NW 28.8 mph 47.2 mph N/A Rain Light Rain
3:35 AM 39.2 °F 26.8 °F 37.4 °F 93% 29.58 in 10.0 mi NW 33.4 mph 46.0 mph N/A   Overcast
3:55 AM 39.2 °F 26.8 °F 37.4 °F 93% 29.59 in 10.0 mi NNW 33.4 mph 50.6 mph N/A   Overcast
4:15 AM 39.2 °F 27.2 °F 37.4 °F 93% 29.59 in 10.0 mi NW 31.1 mph 46.0 mph N/A   Overcast
4:35 AM 39.2 °F 27.6 °F 37.4 °F 93% 29.60 in 10.0 mi NNW 28.8 mph 49.5 mph N/A   Overcast
4:55 AM 39.2 °F 27.0 °F 37.4 °F 93% 29.61 in 10.0 mi NNW 32.2 mph 47.2 mph N/A Rain Light Rain
5:15 AM 39.2 °F 26.6 °F 37.4 °F 93% 29.62 in 10.0 mi NNW 34.5 mph 48.3 mph N/A   Overcast
5:35 AM 39.2 °F 27.4 °F 37.4 °F 93% 29.63 in 10.0 mi NNW 29.9 mph 47.2 mph 0.02 in   Mostly Cloudy
5:55 AM 39.2 °F 27.0 °F 37.4 °F 93% 29.64 in 10.0 mi NNW 32.2 mph 41.4 mph 0.03 in Rain Light Rain
6:15 AM 39.2 °F 26.6 °F 37.4 °F 93% 29.66 in 10.0 mi NNW 34.5 mph 46.0 mph N/A   Overcast
6:35 AM 37.4 °F 25.0 °F 37.4 °F 100% 29.68 in 10.0 mi NNW 29.9 mph 44.9 mph 0.02 in   Mostly Cloudy
6:55 AM 37.4 °F 24.6 °F 37.4 °F 100% 29.69 in 10.0 mi NNW 32.2 mph 39.1 mph 0.04 in   Mostly Cloudy
7:15 AM 37.4 °F 23.8 °F 37.4 °F 100% 29.69 in 10.0 mi NNW 36.8 mph 47.2 mph 0.01 in   Mostly Cloudy
7:35 AM 37.4 °F 25.0 °F 37.4 °F 100% 29.71 in 10.0 mi NNW 29.9 mph 46.0 mph 0.01 in   Overcast
7:55 AM 37.4 °F 24.8 °F 37.4 °F 100% 29.72 in 10.0 mi NNW 31.1 mph 43.7 mph 0.02 in   Overcast
8:15 AM 37.4 °F 25.2 °F 37.4 °F 100% 29.74 in 10.0 mi NNW 28.8 mph 42.6 mph N/A   Mostly Cloudy
8:35 AM 37.4 °F 25.6 °F 37.4 °F 100% 29.75 in 10.0 mi NNW 26.5 mph 36.8 mph 0.03 in   Mostly Cloudy
8:55 AM 37.4 °F 25.6 °F 37.4 °F 100% 29.77 in 10.0 mi NNW 26.5 mph 39.1 mph 0.04 in   Mostly Cloudy
9:15 AM 37.4 °F 25.6 °F 37.4 °F 100% 29.78 in 10.0 mi NNW 26.5 mph 35.7 mph N/A Rain Light Rain
9:35 AM 37.4 °F 25.4 °F 37.4 °F 100% 29.79 in 10.0 mi NNW 27.6 mph 43.7 mph N/A Rain Light Rain
9:55 AM 37.4 °F 24.6 °F 37.4 °F 100% 29.79 in 10.0 mi NNW 32.2 mph 44.9 mph N/A Rain Light Rain
10:15 AM 39.2 °F 28.5 °F 37.4 °F 93% 29.80 in 10.0 mi NNW 24.2 mph 44.9 mph N/A Rain Light Rain
10:35 AM 39.2 °F 27.6 °F 37.4 °F 93% 29.80 in 10.0 mi NNW 28.8 mph 42.6 mph N/A Rain Light Rain
10:55 AM 39.2 °F 28.0 °F 37.4 °F 93% 29.81 in 10.0 mi NNW 26.5 mph 42.6 mph N/A   Overcast
11:15 AM 39.2 °F 28.0 °F 37.4 °F 93% 29.82 in 10.0 mi NNW 26.5 mph 43.7 mph N/A   Overcast
11:35 AM 39.2 °F 28.0 °F 37.4 °F 93% 29.84 in 10.0 mi NNW 26.5 mph 41.4 mph N/A   Overcast
11:55 AM 39.2 °F 27.8 °F 37.4 °F 93% 29.86 in 10.0 mi NNW 27.6 mph 39.1 mph N/A   Overcast
12:15 PM 39.2 °F 27.8 °F 37.4 °F 93% 29.87 in 10.0 mi NNW 27.6 mph 44.9 mph N/A   Overcast
12:35 PM 39.2 °F 28.7 °F 37.4 °F 93% 29.88 in 10.0 mi NNW 23.0 mph 42.6 mph N/A   Overcast
12:55 PM 39.2 °F 27.8 °F 37.4 °F 93% 29.88 in 10.0 mi NNW 27.6 mph 38.0 mph N/A   Overcast
1:15 PM 39.2 °F 27.8 °F 37.4 °F 93% 29.89 in 10.0 mi NNW 27.6 mph 40.3 mph N/A   Overcast
1:35 PM 39.2 °F 27.8 °F 37.4 °F 93% 29.90 in 10.0 mi NNW 27.6 mph 40.3 mph N/A   Overcast
1:55 PM 39.2 °F 28.3 °F 37.4 °F 93% 29.90 in 10.0 mi NNW 25.3 mph 40.3 mph N/A   Overcast
2:15 PM 41.0 °F 30.0 °F 37.4 °F 87% 29.90 in 10.0 mi NNW 28.8 mph 41.4 mph N/A   Overcast
2:35 PM 41.0 °F 30.0 °F 37.4 °F 87% 29.90 in 10.0 mi NNW 28.8 mph 39.1 mph N/A   Overcast
2:55 PM 41.0 °F 31.1 °F 37.4 °F 87% 29.91 in 10.0 mi NNW 23.0 mph 38.0 mph N/A   Overcast
3:15 PM 41.0 °F 29.8 °F 37.4 °F 87% 29.91 in 10.0 mi NNW 29.9 mph 38.0 mph N/A   Overcast
3:35 PM 41.0 °F 30.5 °F 37.4 °F 87% 29.92 in 10.0 mi NNW 26.5 mph 36.8 mph N/A   Overcast
3:55 PM 41.0 °F 30.9 °F 37.4 °F 87% 29.93 in 10.0 mi NNW 24.2 mph 38.0 mph N/A   Overcast
4:15 PM 41.0 °F 30.5 °F 37.4 °F 87% 29.93 in 10.0 mi NNW 26.5 mph 39.1 mph N/A   Overcast
4:35 PM 41.0 °F 29.5 °F 35.6 °F 81% 29.93 in 10.0 mi NNW 32.2 mph 40.3 mph N/A   Overcast
4:55 PM 41.0 °F 30.9 °F 37.4 °F 87% 29.94 in 10.0 mi NNW 24.2 mph 39.1 mph N/A   Overcast
5:15 PM 41.0 °F 30.9 °F 35.6 °F 81% 29.94 in 10.0 mi NNW 24.2 mph 36.8 mph N/A   Overcast
5:35 PM 41.0 °F 31.4 °F 37.4 °F 87% 29.95 in 10.0 mi NNW 21.9 mph 32.2 mph N/A   Overcast
5:55 PM 41.0 °F 31.1 °F 35.6 °F 81% 29.96 in 10.0 mi NNW 23.0 mph 28.8 mph N/A   Overcast
6:15 PM 41.0 °F 32.2 °F 35.6 °F 81% 29.97 in 10.0 mi NNW 18.4 mph 29.9 mph N/A   Overcast
6:35 PM 41.0 °F 31.1 °F 35.6 °F 81% 29.97 in 10.0 mi NNW 23.0 mph 32.2 mph N/A   Overcast
6:55 PM 39.2 °F 29.0 °F 33.8 °F 81% 29.98 in 10.0 mi NNW 21.9 mph 28.8 mph N/A   Overcast
7:15 PM 39.2 °F 29.0 °F 33.8 °F 81% 29.99 in 10.0 mi NNW 21.9 mph 35.7 mph N/A   Overcast
7:35 PM 39.2 °F 29.0 °F 33.8 °F 81% 29.99 in 10.0 mi NNW 21.9 mph 32.2 mph N/A   Overcast
7:55 PM 39.2 °F 30.8 °F 33.8 °F 81% 29.99 in 10.0 mi NNW 15.0 mph 28.8 mph N/A   Overcast
8:15 PM 39.2 °F 31.2 °F 37.4 °F 93% 30.00 in 10.0 mi NNW 13.8 mph 21.9 mph N/A   Overcast
8:35 PM 39.2 °F 30.8 °F 37.4 °F 93% 29.99 in 10.0 mi NW 15.0 mph 21.9 mph N/A   Overcast
8:55 PM 39.2 °F 31.2 °F 37.4 °F 93% 30.00 in 10.0 mi NNW 13.8 mph 19.6 mph N/A   Overcast
9:15 PM 37.4 °F 28.2 °F 37.4 °F 100% 30.00 in 10.0 mi NW 16.1 mph 19.6 mph N/A   Overcast
9:35 PM 37.4 °F 28.9 °F 37.4 °F 100% 30.00 in 10.0 mi NNW 13.8 mph 19.6 mph N/A   Overcast
9:55 PM 37.4 °F 28.9 °F 37.4 °F 100% 30.00 in 10.0 mi NNW 13.8 mph 18.4 mph N/A   Overcast
10:15 PM 37.4 °F 28.9 °F 37.4 °F 100% 30.00 in 10.0 mi NNW 13.8 mph 18.4 mph N/A   Overcast
10:35 PM 39.2 °F 30.8 °F 35.6 °F 87% 30.01 in 10.0 mi NNW 15.0 mph 19.6 mph N/A   Overcast
10:55 PM 39.2 °F 30.5 °F 35.6 °F 87% 30.00 in 10.0 mi NNW 16.1 mph 21.9 mph N/A   Overcast